contact:dominique.lefevre@mio.osupytheas.fr, maurice.libes@osupytheas.fr, didier.mallarino@osupytheas.fr
Project:EMSO http://www.emso-fr.org/EMSO-France
Depth: 2436.0 m
Title:EMSO Ligure Ouest : Data MII capteur CSTAR
DateTime,Latitude,Longitude,Instrument_Serial,Reference_Counts,Signal_Counts,Corrected_Signal_raw_counts,Calculated_Beam_c_inverse_meters,Internal_thermistor_counts
DateTime,Latitude,Longitude,Instrument_Serial,Reference_Counts,Signal_Counts,Corrected_Signal_raw_counts,Calculated_Beam_c_inverse_meters,Internal_thermistor_counts
2019-12-03T00:00:54,42.805,6.029,CST-1368DR,7240,10144,15294,0.083,551
2019-12-03T00:03:55,42.805,6.029,CST-1368DR,7239,10146,15298,0.082,550
2019-12-03T00:06:57,42.805,6.029,CST-1368DR,7239,10136,15283,0.086,551
2019-12-03T00:09:59,42.805,6.029,CST-1368DR,7239,10146,15298,0.082,551
2019-12-03T00:13:00,42.805,6.029,CST-1368DR,7239,10144,15295,0.083,551
2019-12-03T00:16:02,42.805,6.029,CST-1368DR,7239,10146,15298,0.082,551
2019-12-03T00:19:04,42.805,6.029,CST-1368DR,7239,10146,15298,0.082,551
2019-12-03T00:22:05,42.805,6.029,CST-1368DR,7239,10146,15298,0.082,551
2019-12-03T00:25:07,42.805,6.029,CST-1368DR,7239,10145,15297,0.083,551
2019-12-03T00:28:09,42.805,6.029,CST-1368DR,7239,10145,15297,0.083,551
2019-12-03T00:31:10,42.805,6.029,CST-1368DR,7239,10146,15298,0.082,551
2019-12-03T00:34:12,42.805,6.029,CST-1368DR,7239,10146,15298,0.082,551
2019-12-03T00:37:13,42.805,6.029,CST-1368DR,7239,10146,15299,0.082,551
2019-12-03T00:40:15,42.805,6.029,CST-1368DR,7239,10146,15298,0.082,551
2019-12-03T00:43:17,42.805,6.029,CST-1368DR,7239,10146,15299,0.082,551
2019-12-03T00:46:19,42.805,6.029,CST-1368DR,7239,10145,15297,0.083,551
2019-12-03T00:49:20,42.805,6.029,CST-1368DR,7239,10144,15295,0.083,551
2019-12-03T00:52:22,42.805,6.029,CST-1368DR,7239,10145,15297,0.083,551
2019-12-03T00:55:24,42.805,6.029,CST-1368DR,7239,10146,15298,0.082,551
2019-12-03T00:58:25,42.805,6.029,CST-1368DR,7239,10147,15300,0.082,551
2019-12-03T01:01:27,42.805,6.029,CST-1368DR,7239,10146,15298,0.082,551
2019-12-03T01:04:29,42.805,6.029,CST-1368DR,7239,10146,15299,0.082,551
2019-12-03T01:07:30,42.805,6.029,CST-1368DR,7239,10147,15299,0.082,551
2019-12-03T01:10:32,42.805,6.029,CST-1368DR,7239,10147,15299,0.082,551
2019-12-03T01:13:34,42.805,6.029,CST-1368DR,7239,10145,15297,0.083,551
2019-12-03T01:16:35,42.805,6.029,CST-1368DR,7239,10146,15299,0.082,551
2019-12-03T01:19:37,42.805,6.029,CST-1368DR,7239,10147,15300,0.082,550
2019-12-03T01:22:38,42.805,6.029,CST-1368DR,7239,10147,15300,0.082,551
2019-12-03T01:25:40,42.805,6.029,CST-1368DR,7239,10144,15295,0.083,551
2019-12-03T01:28:42,42.805,6.029,CST-1368DR,7239,10147,15300,0.082,551
2019-12-03T01:31:43,42.805,6.029,CST-1368DR,7239,10147,15300,0.082,551
2019-12-03T01:34:45,42.805,6.029,CST-1368DR,7239,10144,15295,0.083,551
2019-12-03T01:37:47,42.805,6.029,CST-1368DR,7239,10146,15299,0.082,551
2019-12-03T01:40:48,42.805,6.029,CST-1368DR,7239,10145,15297,0.083,551
2019-12-03T01:43:50,42.805,6.029,CST-1368DR,7239,10147,15299,0.082,551
2019-12-03T01:46:52,42.805,6.029,CST-1368DR,7239,10146,15299,0.082,551
2019-12-03T01:49:53,42.805,6.029,CST-1368DR,7239,10147,15299,0.082,551
2019-12-03T01:52:55,42.805,6.029,CST-1368DR,7239,10146,15298,0.082,551
2019-12-03T01:55:56,42.805,6.029,CST-1368DR,7239,10147,15300,0.082,551
2019-12-03T01:58:58,42.805,6.029,CST-1368DR,7239,10147,15300,0.082,551
2019-12-03T02:02:00,42.805,6.029,CST-1368DR,7239,10144,15295,0.083,551
2019-12-03T02:05:01,42.805,6.029,CST-1368DR,7239,10146,15298,0.082,551
2019-12-03T02:08:03,42.805,6.029,CST-1368DR,7239,10146,15298,0.082,551
2019-12-03T02:11:05,42.805,6.029,CST-1368DR,7239,10147,15299,0.082,551
2019-12-03T02:14:06,42.805,6.029,CST-1368DR,7239,10147,15299,0.082,551
2019-12-03T02:17:08,42.805,6.029,CST-1368DR,7239,10146,15298,0.082,551
2019-12-03T02:20:09,42.805,6.029,CST-1368DR,7239,10144,15295,0.083,551
2019-12-03T02:23:11,42.805,6.029,CST-1368DR,7239,10146,15298,0.082,550
2019-12-03T02:26:13,42.805,6.029,CST-1368DR,7239,10146,15299,0.082,551
2019-12-03T02:29:14,42.805,6.029,CST-1368DR,7239,10146,15298,0.082,551
2019-12-03T02:32:16,42.805,6.029,CST-1368DR,7239,10147,15300,0.082,551
2019-12-03T02:35:18,42.805,6.029,CST-1368DR,7239,10144,15295,0.083,551
2019-12-03T02:38:19,42.805,6.029,CST-1368DR,7239,10145,15297,0.083,551
2019-12-03T02:41:21,42.805,6.029,CST-1368DR,7239,10147,15300,0.082,551
2019-12-03T02:44:23,42.805,6.029,CST-1368DR,7239,10146,15298,0.082,551
2019-12-03T02:47:24,42.805,6.029,CST-1368DR,7239,10146,15298,0.082,551
2019-12-03T02:50:26,42.805,6.029,CST-1368DR,7239,10146,15298,0.082,551
2019-12-03T02:53:27,42.805,6.029,CST-1368DR,7239,10147,15300,0.082,551
2019-12-03T02:56:29,42.805,6.029,CST-1368DR,7239,10146,15299,0.082,551
2019-12-03T02:59:31,42.805,6.029,CST-1368DR,7239,10147,15300,0.082,551
2019-12-03T03:02:33,42.805,6.029,CST-1368DR,7238,10142,15294,0.083,551
2019-12-03T03:05:34,42.805,6.029,CST-1368DR,7238,10148,15303,0.081,551
2019-12-03T03:08:36,42.805,6.029,CST-1368DR,7238,10145,15299,0.082,551
2019-12-03T03:11:38,42.805,6.029,CST-1368DR,7238,10145,15299,0.082,551
2019-12-03T03:14:39,42.805,6.029,CST-1368DR,7238,10146,15301,0.082,551
2019-12-03T03:17:41,42.805,6.029,CST-1368DR,7239,10146,15298,0.082,551
2019-12-03T03:20:42,42.805,6.029,CST-1368DR,7239,10147,15299,0.082,551
2019-12-03T03:23:44,42.805,6.029,CST-1368DR,7238,10146,15300,0.082,551
2019-12-03T03:26:46,42.805,6.029,CST-1368DR,7238,10146,15301,0.082,551
2019-12-03T03:29:48,42.805,6.029,CST-1368DR,7238,10147,15302,0.081,551
2019-12-03T03:32:49,42.805,6.029,CST-1368DR,7238,10147,15302,0.081,551
2019-12-03T03:35:51,42.805,6.029,CST-1368DR,7238,10146,15300,0.082,551
2019-12-03T03:38:52,42.805,6.029,CST-1368DR,7238,10146,15300,0.082,551
2019-12-03T03:41:54,42.805,6.029,CST-1368DR,7238,10146,15300,0.082,551
2019-12-03T03:44:56,42.805,6.029,CST-1368DR,7238,10147,15301,0.082,551
2019-12-03T03:47:57,42.805,6.029,CST-1368DR,7238,10147,15302,0.081,551
2019-12-03T03:50:59,42.805,6.029,CST-1368DR,7238,10146,15301,0.082,551
2019-12-03T03:54:01,42.805,6.029,CST-1368DR,7238,10146,15300,0.082,551
2019-12-03T03:57:02,42.805,6.029,CST-1368DR,7238,10147,15302,0.081,551
2019-12-03T04:00:04,42.805,6.029,CST-1368DR,7238,10142,15295,0.083,551
2019-12-03T04:03:06,42.805,6.029,CST-1368DR,7238,10146,15300,0.082,551
2019-12-03T04:06:07,42.805,6.029,CST-1368DR,7238,10147,15302,0.081,551
2019-12-03T04:09:09,42.805,6.029,CST-1368DR,7238,10147,15301,0.082,551
2019-12-03T04:12:11,42.805,6.029,CST-1368DR,7238,10147,15302,0.081,551
2019-12-03T04:15:12,42.805,6.029,CST-1368DR,7238,10145,15299,0.082,551
2019-12-03T04:18:14,42.805,6.029,CST-1368DR,7238,10147,15301,0.082,551
2019-12-03T04:21:15,42.805,6.029,CST-1368DR,7238,10147,15302,0.081,551
2019-12-03T04:24:17,42.805,6.029,CST-1368DR,7238,10146,15301,0.082,551
2019-12-03T04:27:19,42.805,6.029,CST-1368DR,7238,10147,15302,0.081,551
2019-12-03T04:30:20,42.805,6.029,CST-1368DR,7238,10146,15300,0.082,551
2019-12-03T04:33:22,42.805,6.029,CST-1368DR,7238,10147,15302,0.081,551
2019-12-03T04:36:24,42.805,6.029,CST-1368DR,7238,10146,15301,0.082,551
2019-12-03T04:39:25,42.805,6.029,CST-1368DR,7238,10147,15301,0.082,551
2019-12-03T04:42:27,42.805,6.029,CST-1368DR,7238,10147,15302,0.081,551
2019-12-03T04:45:29,42.805,6.029,CST-1368DR,7238,10146,15300,0.082,550
2019-12-03T04:48:30,42.805,6.029,CST-1368DR,7238,10147,15301,0.082,551
2019-12-03T04:51:32,42.805,6.029,CST-1368DR,7238,10146,15300,0.082,551
2019-12-03T04:54:34,42.805,6.029,CST-1368DR,7238,10146,15301,0.082,551
2019-12-03T04:57:35,42.805,6.029,CST-1368DR,7238,10147,15302,0.081,551
2019-12-03T05:00:37,42.805,6.029,CST-1368DR,7238,10146,15300,0.082,551
2019-12-03T05:03:39,42.805,6.029,CST-1368DR,7238,10146,15301,0.082,551
2019-12-03T05:06:40,42.805,6.029,CST-1368DR,7238,10145,15299,0.082,551
2019-12-03T05:09:42,42.805,6.029,CST-1368DR,7238,10147,15301,0.082,551
2019-12-03T05:12:44,42.805,6.029,CST-1368DR,7238,10146,15300,0.082,551
2019-12-03T05:15:45,42.805,6.029,CST-1368DR,7238,10147,15301,0.082,551
2019-12-03T05:18:47,42.805,6.029,CST-1368DR,7238,10144,15297,0.083,551
2019-12-03T05:21:48,42.805,6.029,CST-1368DR,7238,10146,15300,0.082,551
2019-12-03T05:24:50,42.805,6.029,CST-1368DR,7238,10146,15300,0.082,550
2019-12-03T05:27:52,42.805,6.029,CST-1368DR,7238,10146,15301,0.082,551
2019-12-03T05:30:53,42.805,6.029,CST-1368DR,7238,10147,15302,0.081,551
2019-12-03T05:33:55,42.805,6.029,CST-1368DR,7238,10146,15300,0.082,551
2019-12-03T05:36:57,42.805,6.029,CST-1368DR,7238,10145,15299,0.082,551
2019-12-03T05:39:58,42.805,6.029,CST-1368DR,7238,10147,15302,0.081,551
2019-12-03T05:43:00,42.805,6.029,CST-1368DR,7238,10146,15300,0.082,551
2019-12-03T05:46:02,42.805,6.029,CST-1368DR,7238,10146,15301,0.082,551
2019-12-03T05:49:03,42.805,6.029,CST-1368DR,7238,10146,15300,0.082,551
2019-12-03T05:52:05,42.805,6.029,CST-1368DR,7238,10145,15299,0.082,551
2019-12-03T05:55:06,42.805,6.029,CST-1368DR,7238,10147,15301,0.082,551
2019-12-03T05:58:08,42.805,6.029,CST-1368DR,7238,10146,15300,0.082,551
2019-12-03T06:01:10,42.805,6.029,CST-1368DR,7238,10147,15302,0.081,551
2019-12-03T06:04:11,42.805,6.029,CST-1368DR,7238,10147,15302,0.081,551
2019-12-03T06:07:13,42.805,6.029,CST-1368DR,7238,10146,15301,0.082,551
2019-12-03T06:10:15,42.805,6.029,CST-1368DR,7238,10146,15300,0.082,551
2019-12-03T06:13:16,42.805,6.029,CST-1368DR,7238,10146,15300,0.082,551
2019-12-03T06:16:18,42.805,6.029,CST-1368DR,7238,10146,15300,0.082,551
2019-12-03T06:19:20,42.805,6.029,CST-1368DR,7238,10146,15301,0.082,551
2019-12-03T06:22:22,42.805,6.029,CST-1368DR,7238,10142,15294,0.083,551
2019-12-03T06:25:24,42.805,6.029,CST-1368DR,7238,10146,15300,0.082,551
2019-12-03T06:28:25,42.805,6.029,CST-1368DR,7238,10146,15300,0.082,551
2019-12-03T06:31:27,42.805,6.029,CST-1368DR,7238,10146,15300,0.082,551
2019-12-03T06:34:29,42.805,6.029,CST-1368DR,7238,10145,15299,0.082,551
2019-12-03T06:37:30,42.805,6.029,CST-1368DR,7238,10145,15299,0.082,551
2019-12-03T06:40:32,42.805,6.029,CST-1368DR,7238,10146,15300,0.082,551
2019-12-03T06:43:34,42.805,6.029,CST-1368DR,7238,10146,15300,0.082,551
2019-12-03T06:46:35,42.805,6.029,CST-1368DR,7238,10144,15297,0.083,551
2019-12-03T06:49:37,42.805,6.029,CST-1368DR,7238,10143,15296,0.083,551
2019-12-03T06:52:38,42.805,6.029,CST-1368DR,7238,10145,15299,0.082,551
2019-12-03T06:55:40,42.805,6.029,CST-1368DR,7238,10145,15299,0.082,551
2019-12-03T06:58:42,42.805,6.029,CST-1368DR,7237,10146,15302,0.081,551
2019-12-03T07:01:43,42.805,6.029,CST-1368DR,7238,10146,15300,0.082,550
2019-12-03T07:04:45,42.805,6.029,CST-1368DR,7238,10146,15300,0.082,551
2019-12-03T07:07:47,42.805,6.029,CST-1368DR,7237,10144,15299,0.082,551
2019-12-03T07:10:48,42.805,6.029,CST-1368DR,7237,10145,15301,0.082,551
2019-12-03T07:13:50,42.805,6.029,CST-1368DR,7237,10146,15302,0.081,550
2019-12-03T07:16:51,42.805,6.029,CST-1368DR,7237,10146,15302,0.081,551
2019-12-03T07:19:53,42.805,6.029,CST-1368DR,7237,10145,15301,0.082,551
2019-12-03T07:22:55,42.805,6.029,CST-1368DR,7237,10144,15300,0.082,551
2019-12-03T07:25:56,42.805,6.029,CST-1368DR,7237,10146,15302,0.081,551
2019-12-03T07:28:58,42.805,6.029,CST-1368DR,7237,10146,15302,0.081,550
2019-12-03T07:32:00,42.805,6.029,CST-1368DR,7237,10146,15303,0.081,551
2019-12-03T07:35:01,42.805,6.029,CST-1368DR,7237,10145,15301,0.082,551
2019-12-03T07:38:03,42.805,6.029,CST-1368DR,7237,10146,15302,0.081,551
2019-12-03T07:41:05,42.805,6.029,CST-1368DR,7237,10146,15302,0.081,551
2019-12-03T07:44:06,42.805,6.029,CST-1368DR,7237,10145,15301,0.082,550
2019-12-03T07:47:08,42.805,6.029,CST-1368DR,7237,10146,15303,0.081,551
2019-12-03T07:50:10,42.805,6.029,CST-1368DR,7237,10146,15302,0.081,551
2019-12-03T07:53:11,42.805,6.029,CST-1368DR,7237,10144,15300,0.082,551
2019-12-03T07:56:13,42.805,6.029,CST-1368DR,7237,10146,15302,0.081,551
2019-12-03T07:59:15,42.805,6.029,CST-1368DR,7237,10145,15301,0.082,551
2019-12-03T08:02:16,42.805,6.029,CST-1368DR,7237,10145,15301,0.082,551
2019-12-03T08:05:18,42.805,6.029,CST-1368DR,7237,10145,15301,0.082,551
2019-12-03T08:08:20,42.805,6.029,CST-1368DR,7237,10146,15302,0.081,551
2019-12-03T08:11:21,42.805,6.029,CST-1368DR,7237,10145,15301,0.082,551
2019-12-03T08:14:23,42.805,6.029,CST-1368DR,7237,10145,15301,0.082,551
2019-12-03T08:17:25,42.805,6.029,CST-1368DR,7237,10145,15301,0.082,551
2019-12-03T08:20:27,42.805,6.029,CST-1368DR,7237,10145,15301,0.082,551
2019-12-03T08:23:28,42.805,6.029,CST-1368DR,7237,10145,15301,0.082,551
2019-12-03T08:26:30,42.805,6.029,CST-1368DR,7237,10144,15299,0.082,550
2019-12-03T08:29:31,42.805,6.029,CST-1368DR,7237,10144,15299,0.082,551
2019-12-03T08:32:33,42.805,6.029,CST-1368DR,7237,10144,15299,0.082,551
2019-12-03T08:35:35,42.805,6.029,CST-1368DR,7237,10143,15297,0.083,551
2019-12-03T08:38:36,42.805,6.029,CST-1368DR,7237,10144,15299,0.082,551
2019-12-03T08:41:38,42.805,6.029,CST-1368DR,7237,10143,15297,0.083,551
2019-12-03T08:44:40,42.805,6.029,CST-1368DR,7237,10144,15300,0.082,551
2019-12-03T08:47:41,42.805,6.029,CST-1368DR,7237,10143,15297,0.083,551
2019-12-03T08:50:43,42.805,6.029,CST-1368DR,7237,10144,15300,0.082,551
2019-12-03T08:53:45,42.805,6.029,CST-1368DR,7237,10142,15296,0.083,551
2019-12-03T08:56:46,42.805,6.029,CST-1368DR,7237,10143,15297,0.083,551
2019-12-03T08:59:48,42.805,6.029,CST-1368DR,7237,10144,15300,0.082,550
2019-12-03T09:02:49,42.805,6.029,CST-1368DR,7237,10143,15298,0.082,551
2019-12-03T09:05:51,42.805,6.029,CST-1368DR,7237,10144,15299,0.082,551
2019-12-03T09:08:53,42.805,6.029,CST-1368DR,7237,10144,15299,0.082,551
2019-12-03T09:11:55,42.805,6.029,CST-1368DR,7237,10142,15296,0.083,551
2019-12-03T09:14:56,42.805,6.029,CST-1368DR,7237,10145,15301,0.082,551
2019-12-03T09:17:58,42.805,6.029,CST-1368DR,7237,10143,15298,0.082,551
2019-12-03T09:21:00,42.805,6.029,CST-1368DR,7237,10144,15299,0.082,551
2019-12-03T09:24:01,42.805,6.029,CST-1368DR,7237,10144,15300,0.082,551
2019-12-03T09:27:03,42.805,6.029,CST-1368DR,7237,10143,15298,0.082,551
2019-12-03T09:30:04,42.805,6.029,CST-1368DR,7237,10142,15296,0.083,551
2019-12-03T09:33:06,42.805,6.029,CST-1368DR,7237,10144,15299,0.082,551
2019-12-03T09:36:08,42.805,6.029,CST-1368DR,7237,10144,15299,0.082,551
2019-12-03T09:39:09,42.805,6.029,CST-1368DR,7237,10144,15300,0.082,551
2019-12-03T09:42:11,42.805,6.029,CST-1368DR,7237,10144,15300,0.082,550
2019-12-03T09:45:13,42.805,6.029,CST-1368DR,7237,10145,15300,0.082,551
2019-12-03T09:48:14,42.805,6.029,CST-1368DR,7237,10144,15300,0.082,551
2019-12-03T09:51:16,42.805,6.029,CST-1368DR,7237,10141,15294,0.083,551
2019-12-03T09:54:18,42.805,6.029,CST-1368DR,7237,10144,15299,0.082,551
2019-12-03T09:57:19,42.805,6.029,CST-1368DR,7236,10144,15301,0.082,551
2019-12-03T10:00:21,42.805,6.029,CST-1368DR,7237,10144,15299,0.082,551
2019-12-03T10:03:22,42.805,6.029,CST-1368DR,7237,10143,15298,0.082,551
2019-12-03T10:06:24,42.805,6.029,CST-1368DR,7237,10144,15300,0.082,551
2019-12-03T10:09:26,42.805,6.029,CST-1368DR,7237,10141,15295,0.083,551
2019-12-03T10:12:27,42.805,6.029,CST-1368DR,7237,10144,15300,0.082,551
2019-12-03T10:15:29,42.805,6.029,CST-1368DR,7237,10144,15299,0.082,551
2019-12-03T10:18:31,42.805,6.029,CST-1368DR,7237,10142,15296,0.083,551
2019-12-03T10:21:32,42.805,6.029,CST-1368DR,7237,10144,15300,0.082,551
2019-12-03T10:24:34,42.805,6.029,CST-1368DR,7236,10143,15300,0.082,551
2019-12-03T10:27:35,42.805,6.029,CST-1368DR,7236,10143,15300,0.082,551
2019-12-03T10:30:37,42.805,6.029,CST-1368DR,7236,10143,15300,0.082,551
2019-12-03T10:33:39,42.805,6.029,CST-1368DR,7236,10144,15301,0.082,551
2019-12-03T10:36:40,42.805,6.029,CST-1368DR,7236,10143,15300,0.082,551
2019-12-03T10:39:42,42.805,6.029,CST-1368DR,7236,10144,15301,0.082,551
2019-12-03T10:42:44,42.805,6.029,CST-1368DR,7236,10144,15301,0.082,551
2019-12-03T10:45:45,42.805,6.029,CST-1368DR,7236,10145,15302,0.081,551
2019-12-03T10:48:47,42.805,6.029,CST-1368DR,7236,10144,15301,0.082,551
2019-12-03T10:51:49,42.805,6.029,CST-1368DR,7236,10144,15302,0.081,551
2019-12-03T10:54:50,42.805,6.029,CST-1368DR,7236,10143,15299,0.082,551
2019-12-03T10:57:52,42.805,6.029,CST-1368DR,7236,10143,15300,0.082,551
2019-12-03T11:00:53,42.805,6.029,CST-1368DR,7236,10142,15298,0.082,551
2019-12-03T11:03:55,42.805,6.029,CST-1368DR,7236,10143,15300,0.082,551
2019-12-03T11:06:57,42.805,6.029,CST-1368DR,7236,10145,15302,0.081,551
2019-12-03T11:09:58,42.805,6.029,CST-1368DR,7236,10144,15301,0.082,551
2019-12-03T11:13:00,42.805,6.029,CST-1368DR,7236,10144,15301,0.082,551
2019-12-03T11:16:02,42.805,6.029,CST-1368DR,7236,10143,15300,0.082,551
2019-12-03T11:19:03,42.805,6.029,CST-1368DR,7236,10144,15301,0.082,551
2019-12-03T11:22:05,42.805,6.029,CST-1368DR,7236,10144,15301,0.082,551
2019-12-03T11:25:07,42.805,6.029,CST-1368DR,7236,10144,15302,0.081,550
2019-12-03T11:28:08,42.805,6.029,CST-1368DR,7236,10144,15301,0.082,551
2019-12-03T11:31:10,42.805,6.029,CST-1368DR,7236,10140,15295,0.083,550
2019-12-03T11:34:12,42.805,6.029,CST-1368DR,7236,10144,15301,0.082,551
2019-12-03T11:37:13,42.805,6.029,CST-1368DR,7236,10143,15300,0.082,551
2019-12-03T11:40:15,42.805,6.029,CST-1368DR,7236,10144,15301,0.082,551
2019-12-03T11:43:17,42.805,6.029,CST-1368DR,7236,10143,15300,0.082,551
2019-12-03T11:46:18,42.805,6.029,CST-1368DR,7236,10136,15290,0.084,550
2019-12-03T11:49:20,42.805,6.029,CST-1368DR,7236,10142,15299,0.082,551
2019-12-03T11:52:22,42.805,6.029,CST-1368DR,7236,10143,15300,0.082,551
2019-12-03T11:55:23,42.805,6.029,CST-1368DR,7236,10143,15300,0.082,551
2019-12-03T11:58:25,42.805,6.029,CST-1368DR,7236,10144,15301,0.082,551
2019-12-03T12:01:26,42.805,6.029,CST-1368DR,7236,10142,15298,0.082,551
2019-12-03T12:04:28,42.805,6.029,CST-1368DR,7236,10143,15299,0.082,551
2019-12-03T12:07:30,42.805,6.029,CST-1368DR,7236,10141,15297,0.083,551
2019-12-03T12:10:31,42.805,6.029,CST-1368DR,7236,10143,15299,0.082,551
2019-12-03T12:13:33,42.805,6.029,CST-1368DR,7236,10144,15301,0.082,551
2019-12-03T12:16:35,42.805,6.029,CST-1368DR,7236,10144,15301,0.082,551
2019-12-03T12:19:36,42.805,6.029,CST-1368DR,7236,10142,15299,0.082,551
2019-12-03T12:22:38,42.805,6.029,CST-1368DR,7236,10144,15301,0.082,551
2019-12-03T12:25:40,42.805,6.029,CST-1368DR,7236,10143,15300,0.082,551
2019-12-03T12:28:41,42.805,6.029,CST-1368DR,7236,10144,15301,0.082,551
2019-12-03T12:31:43,42.805,6.029,CST-1368DR,7236,10143,15299,0.082,551
2019-12-03T12:34:45,42.805,6.029,CST-1368DR,7236,10143,15300,0.082,551
2019-12-03T12:37:46,42.805,6.029,CST-1368DR,7236,10143,15300,0.082,551
2019-12-03T12:40:48,42.805,6.029,CST-1368DR,7236,10143,15299,0.082,551
2019-12-03T12:43:50,42.805,6.029,CST-1368DR,7236,10143,15300,0.082,550
2019-12-03T12:46:51,42.805,6.029,CST-1368DR,7236,10143,15300,0.082,551
2019-12-03T12:49:53,42.805,6.029,CST-1368DR,7236,10143,15300,0.082,551
2019-12-03T12:52:55,42.805,6.029,CST-1368DR,7236,10144,15301,0.082,551
2019-12-03T12:55:56,42.805,6.029,CST-1368DR,7236,10143,15300,0.082,551
2019-12-03T12:58:58,42.805,6.029,CST-1368DR,7236,10142,15298,0.082,551
2019-12-03T13:01:59,42.805,6.029,CST-1368DR,7236,10142,15298,0.082,551
2019-12-03T13:05:01,42.805,6.029,CST-1368DR,7236,10143,15300,0.082,551
2019-12-03T13:08:03,42.805,6.029,CST-1368DR,7236,10143,15299,0.082,551
2019-12-03T13:11:04,42.805,6.029,CST-1368DR,7236,10144,15301,0.082,551
2019-12-03T13:14:06,42.805,6.029,CST-1368DR,7236,10143,15300,0.082,551
2019-12-03T13:17:08,42.805,6.029,CST-1368DR,7236,10143,15299,0.082,551
2019-12-03T13:20:09,42.805,6.029,CST-1368DR,7236,10144,15301,0.082,551
2019-12-03T13:23:11,42.805,6.029,CST-1368DR,7236,10144,15301,0.082,551
2019-12-03T13:26:13,42.805,6.029,CST-1368DR,7236,10142,15298,0.082,551
2019-12-03T13:29:14,42.805,6.029,CST-1368DR,7236,10143,15299,0.082,551
2019-12-03T13:32:16,42.805,6.029,CST-1368DR,7236,10141,15296,0.083,551
2019-12-03T13:35:17,42.805,6.029,CST-1368DR,7236,10142,15299,0.082,551
2019-12-03T13:38:19,42.805,6.029,CST-1368DR,7236,10141,15296,0.083,551
2019-12-03T13:41:21,42.805,6.029,CST-1368DR,7236,10142,15298,0.082,550
2019-12-03T13:44:22,42.805,6.029,CST-1368DR,7236,10143,15299,0.082,551
2019-12-03T13:47:24,42.805,6.029,CST-1368DR,7235,10139,15295,0.083,551
2019-12-03T13:50:26,42.805,6.029,CST-1368DR,7236,10143,15300,0.082,551
2019-12-03T13:53:27,42.805,6.029,CST-1368DR,7235,10143,15301,0.082,551
2019-12-03T13:56:29,42.805,6.029,CST-1368DR,7236,10143,15299,0.082,551
2019-12-03T13:59:31,42.805,6.029,CST-1368DR,7235,10140,15297,0.083,550
2019-12-03T14:02:32,42.805,6.029,CST-1368DR,7235,10142,15300,0.082,551
2019-12-03T14:05:34,42.805,6.029,CST-1368DR,7236,10142,15298,0.082,551
2019-12-03T14:08:35,42.805,6.029,CST-1368DR,7236,10143,15300,0.082,551
2019-12-03T14:11:37,42.805,6.029,CST-1368DR,7235,10140,15298,0.082,551
2019-12-03T14:14:39,42.805,6.029,CST-1368DR,7235,10143,15301,0.082,551
2019-12-03T14:17:41,42.805,6.029,CST-1368DR,7235,10143,15302,0.081,551
2019-12-03T14:20:42,42.805,6.029,CST-1368DR,7235,10133,15287,0.085,551
2019-12-03T14:23:44,42.805,6.029,CST-1368DR,7235,10137,15293,0.084,551
2019-12-03T14:26:45,42.805,6.029,CST-1368DR,7235,10143,15301,0.082,551
2019-12-03T14:29:47,42.805,6.029,CST-1368DR,7235,10141,15299,0.082,551
2019-12-03T14:32:49,42.805,6.029,CST-1368DR,7235,10143,15301,0.082,551
2019-12-03T14:35:50,42.805,6.029,CST-1368DR,7235,10143,15301,0.082,551
2019-12-03T14:38:52,42.805,6.029,CST-1368DR,7235,10142,15301,0.082,551
2019-12-03T14:41:54,42.805,6.029,CST-1368DR,7235,10140,15297,0.083,551
2019-12-03T14:44:55,42.805,6.029,CST-1368DR,7235,10140,15297,0.083,551
2019-12-03T14:47:57,42.805,6.029,CST-1368DR,7235,10142,15300,0.082,551
2019-12-03T14:50:58,42.805,6.029,CST-1368DR,7235,10140,15298,0.082,551
2019-12-03T14:54:00,42.805,6.029,CST-1368DR,7235,10141,15298,0.082,551
2019-12-03T14:57:02,42.805,6.029,CST-1368DR,7235,10139,15296,0.083,551
2019-12-03T15:00:03,42.805,6.029,CST-1368DR,7235,10143,15302,0.081,550
2019-12-03T15:03:05,42.805,6.029,CST-1368DR,7235,10142,15301,0.082,550
2019-12-03T15:06:07,42.805,6.029,CST-1368DR,7235,10143,15301,0.082,551
2019-12-03T15:09:09,42.805,6.029,CST-1368DR,7235,10142,15300,0.082,551
2019-12-03T15:12:10,42.805,6.029,CST-1368DR,7235,10142,15300,0.082,551
2019-12-03T15:15:12,42.805,6.029,CST-1368DR,7235,10142,15300,0.082,551
2019-12-03T15:18:13,42.805,6.029,CST-1368DR,7235,10142,15300,0.082,551
2019-12-03T15:21:15,42.805,6.029,CST-1368DR,7235,10142,15300,0.082,551
2019-12-03T15:24:17,42.805,6.029,CST-1368DR,7235,10140,15297,0.083,551
2019-12-03T15:27:18,42.805,6.029,CST-1368DR,7235,10142,15301,0.082,550
2019-12-03T15:30:20,42.805,6.029,CST-1368DR,7235,10141,15299,0.082,551
2019-12-03T15:33:21,42.805,6.029,CST-1368DR,7235,10142,15300,0.082,551
2019-12-03T15:36:23,42.805,6.029,CST-1368DR,7235,10143,15301,0.082,551
2019-12-03T15:39:25,42.805,6.029,CST-1368DR,7235,10142,15300,0.082,551
2019-12-03T15:42:26,42.805,6.029,CST-1368DR,7235,10141,15299,0.082,551
2019-12-03T15:45:28,42.805,6.029,CST-1368DR,7235,10142,15300,0.082,551
2019-12-03T15:48:30,42.805,6.029,CST-1368DR,7235,10142,15300,0.082,551
2019-12-03T15:51:31,42.805,6.029,CST-1368DR,7235,10141,15299,0.082,551
2019-12-03T15:54:33,42.805,6.029,CST-1368DR,7235,10141,15298,0.082,551
2019-12-03T15:57:34,42.805,6.029,CST-1368DR,7235,10140,15298,0.082,551
2019-12-03T16:00:36,42.805,6.029,CST-1368DR,7235,10141,15299,0.082,550
2019-12-03T16:03:38,42.805,6.029,CST-1368DR,7235,10141,15299,0.082,550
2019-12-03T16:06:39,42.805,6.029,CST-1368DR,7235,10142,15300,0.082,551
2019-12-03T16:09:41,42.805,6.029,CST-1368DR,7235,10141,15298,0.082,551
2019-12-03T16:12:43,42.805,6.029,CST-1368DR,7235,10141,15298,0.082,551
2019-12-03T16:15:44,42.805,6.029,CST-1368DR,7235,10140,15298,0.082,551
2019-12-03T16:18:46,42.805,6.029,CST-1368DR,7235,10142,15301,0.082,551
2019-12-03T16:21:47,42.805,6.029,CST-1368DR,7235,10142,15300,0.082,550
2019-12-03T16:24:49,42.805,6.029,CST-1368DR,7235,10141,15298,0.082,551
2019-12-03T16:27:51,42.805,6.029,CST-1368DR,7235,10142,15300,0.082,551
2019-12-03T16:30:52,42.805,6.029,CST-1368DR,7235,10141,15298,0.082,551
2019-12-03T16:33:54,42.805,6.029,CST-1368DR,7235,10140,15297,0.083,551
2019-12-03T16:36:56,42.805,6.029,CST-1368DR,7235,10142,15300,0.082,551